Location: Dana
(41.8364°N, 106.7042°W)
Time: 14:00:53
(UTC+00:00)

Tiros 1 despin weight - Pass Details

Date: 15 May 2026
Orbit: 554 x 591 km, 48.2° (Epoch: 6 June)

Event Time Altitude Azimuth Distance (km) Brightness Sun altitude
Rises 11:59:18 0° 231° (SW) 2,754 ? 1.3°
Reaches altitude 10° 12:01:35 10° 228° (SW) 1,854 ? 1.7°
Maximum altitude 12:05:46 63° 148° (SSE) 628 ? 2.4°
Drops below altitude 10° 12:09:56 10° 67° (ENE) 1,843 ? 3.1°
Sets 12:12:11 0° 64° (ENE) 2,736 ? 3.5°
